SAS1874 EKCH-ENZV

Flight info

Callsign SAS1874
Flight time 0h 59m
Altitude 32000
Route GOLGA DCT KOVIK DCT RIVEX
Aircraft A319/M-SDE3FGIJ1RWXY/LB1

Departure

Time 2026-05-05 17:26
Airport Copenhagen Kastrup Airport (EKCH)

Arrival

Time 2026-05-05 18:26
Airport Stavanger Airport, Sola (ENZV)
Time Latitude Longitude Altitude Speed Heading
2026-05-05 16:08 55.62565 12.64510 24 ft 0 kts 16°
2026-05-05 17:15 55.62563 12.64509 24 ft 2 kts 16°
2026-05-05 17:15 55.62539 12.64497 25 ft 4 kts 16°
2026-05-05 17:16 55.62518 12.64487 27 ft 4 kts 10°
2026-05-05 17:16 55.62494 12.64490 26 ft 4 kts 308°
2026-05-05 17:16 55.62483 12.64521 24 ft 1 kts 303°
2026-05-05 17:16 55.62482 12.64521 24 ft 0 kts 303°
2026-05-05 17:19 55.62483 12.64518 27 ft 1 kts 296°
2026-05-05 17:20 55.62470 12.64488 25 ft 7 kts 215°
2026-05-05 17:20 55.62404 12.64454 24 ft 12 kts 195°
2026-05-05 17:20 55.62317 12.64412 24 ft 14 kts 194°
2026-05-05 17:20 55.62210 12.64405 22 ft 17 kts 168°
2026-05-05 17:21 55.62123 12.64434 23 ft 11 kts 169°
2026-05-05 17:21 55.62047 12.64460 25 ft 12 kts 169°
2026-05-05 17:21 55.61959 12.64489 25 ft 14 kts 169°
2026-05-05 17:22 55.61758 12.64555 25 ft 11 kts 169°
2026-05-05 17:22 55.61706 12.64573 24 ft 7 kts 170°
2026-05-05 17:22 55.61654 12.64539 24 ft 9 kts 213°
2026-05-05 17:22 55.61593 12.64469 24 ft 11 kts 213°
2026-05-05 17:23 55.61522 12.64387 27 ft 13 kts 213°
2026-05-05 17:23 55.61441 12.64294 25 ft 15 kts 213°
2026-05-05 17:23 55.61350 12.64189 24 ft 17 kts 213°
2026-05-05 17:23 55.61246 12.64070 24 ft 19 kts 213°
2026-05-05 17:24 55.61131 12.63937 24 ft 21 kts 213°
2026-05-05 17:24 55.61005 12.63794 24 ft 20 kts 213°
2026-05-05 17:24 55.60886 12.63656 24 ft 20 kts 213°
2026-05-05 17:24 55.60799 12.63588 24 ft 13 kts 166°
2026-05-05 17:25 55.60737 12.63707 25 ft 14 kts 130°
2026-05-05 17:25 55.60692 12.63802 25 ft 15 kts 128°
2026-05-05 17:25 55.60743 12.63971 26 ft 22 kts 41°
2026-05-05 17:25 55.61031 12.64413 23 ft 86 kts 41°
2026-05-05 17:26 55.61628 12.65332 28 ft 140 kts 41°
2026-05-05 17:26 55.62420 12.66561 323 ft 158 kts 40°
2026-05-05 17:26 55.63270 12.67932 838 ft 171 kts 39°
2026-05-05 17:26 55.64161 12.69438 1341 ft 185 kts 40°
2026-05-05 17:27 55.65215 12.71011 1590 ft 214 kts 25°
2026-05-05 17:27 55.66719 12.71426 2045 ft 230 kts 348°
2026-05-05 17:27 55.68289 12.70666 2754 ft 244 kts 342°
2026-05-05 17:27 55.69957 12.69868 3641 ft 253 kts 348°
2026-05-05 17:28 55.71735 12.69620 4597 ft 260 kts 354°
2026-05-05 17:28 55.73550 12.69450 5613 ft 262 kts 354°
2026-05-05 17:28 55.75390 12.69286 6585 ft 267 kts 354°
2026-05-05 17:28 55.77264 12.69115 7494 ft 272 kts 353°
2026-05-05 17:29 55.79167 12.68903 8394 ft 275 kts 349°
2026-05-05 17:29 55.80990 12.67950 9291 ft 274 kts 330°
2026-05-05 17:29 55.82542 12.66009 10147 ft 273 kts 312°
2026-05-05 17:29 55.83705 12.63217 10480 ft 292 kts 294°
2026-05-05 17:30 55.84475 12.59773 11006 ft 304 kts 289°
2026-05-05 17:30 55.85232 12.56284 11758 ft 308 kts 289°
2026-05-05 17:30 55.86019 12.52713 12563 ft 312 kts 289°
2026-05-05 17:30 55.86821 12.49108 13355 ft 315 kts 289°
2026-05-05 17:31 55.87630 12.45473 14110 ft 317 kts 289°
2026-05-05 17:31 55.88446 12.41802 14816 ft 320 kts 289°
2026-05-05 17:31 55.89270 12.38099 15512 ft 323 kts 289°
2026-05-05 17:31 55.90129 12.34383 16207 ft 327 kts 293°
2026-05-05 17:32 55.91330 12.30904 16899 ft 333 kts 301°
2026-05-05 17:32 55.92675 12.27520 17598 ft 336 kts 301°
2026-05-05 17:32 55.94010 12.24149 18269 ft 339 kts 301°
2026-05-05 17:32 55.95369 12.20713 18862 ft 341 kts 301°
2026-05-05 17:33 55.96298 12.18357 19273 ft 343 kts 301°
2026-05-05 17:33 55.97393 12.15560 19729 ft 346 kts 301°
2026-05-05 17:33 55.98776 12.12022 20350 ft 348 kts 301°
2026-05-05 17:34 56.00170 12.08456 20952 ft 351 kts 301°
2026-05-05 17:34 56.01573 12.04872 21542 ft 354 kts 301°
2026-05-05 17:34 56.03113 12.01391 22122 ft 361 kts 309°
2026-05-05 17:34 56.05035 11.98433 22693 ft 370 kts 320°
2026-05-05 17:35 56.07243 11.96077 23256 ft 377 kts 325°
2026-05-05 17:35 56.09536 11.93768 23763 ft 380 kts 325°
2026-05-05 17:35 56.11846 11.91433 24217 ft 383 kts 324°
2026-05-05 17:35 56.14173 11.89075 24663 ft 386 kts 324°
2026-05-05 17:36 56.16514 11.86696 25102 ft 388 kts 324°
2026-05-05 17:36 56.18873 11.84292 25548 ft 391 kts 324°
2026-05-05 17:36 56.21245 11.81864 25982 ft 394 kts 324°
2026-05-05 17:36 56.23633 11.79418 26418 ft 397 kts 324°
2026-05-05 17:37 56.26005 11.76986 26844 ft 399 kts 324°
2026-05-05 17:37 56.28430 11.74500 27275 ft 402 kts 324°
2026-05-05 17:37 56.30858 11.71984 27698 ft 403 kts 322°
2026-05-05 17:37 56.33099 11.68982 28117 ft 400 kts 313°
2026-05-05 17:38 56.35021 11.65385 28540 ft 397 kts 304°
2026-05-05 17:38 56.36693 11.61419 28956 ft 399 kts 302°
2026-05-05 17:38 56.38366 11.57409 29366 ft 401 kts 302°
2026-05-05 17:38 56.40051 11.53369 29788 ft 404 kts 302°
2026-05-05 17:39 56.41741 11.49306 30149 ft 406 kts 302°
2026-05-05 17:39 56.43420 11.45262 30478 ft 409 kts 302°
2026-05-05 17:39 56.45130 11.41140 30811 ft 411 kts 302°
2026-05-05 17:39 56.46845 11.36999 31145 ft 413 kts 302°
2026-05-05 17:40 56.48568 11.32832 31461 ft 414 kts 302°
2026-05-05 17:40 56.50295 11.28649 31822 ft 415 kts 302°
2026-05-05 17:40 56.52017 11.24474 31949 ft 410 kts 302°
2026-05-05 17:40 56.53695 11.20401 31958 ft 397 kts 302°
2026-05-05 17:41 56.55320 11.16446 31969 ft 386 kts 302°
2026-05-05 17:41 56.58457 11.08764 31970 ft 380 kts 302°
2026-05-05 17:42 56.61593 11.01058 31971 ft 379 kts 302°
2026-05-05 17:42 56.64717 10.93366 31958 ft 378 kts 301°
2026-05-05 17:43 56.67842 10.85667 31962 ft 378 kts 301°
2026-05-05 17:43 56.70957 10.77962 31964 ft 378 kts 301°
2026-05-05 17:44 56.74047 10.70311 31964 ft 378 kts 301°
2026-05-05 17:44 56.77145 10.62588 31964 ft 377 kts 301°
2026-05-05 17:45 56.80232 10.54849 31964 ft 377 kts 301°
2026-05-05 17:45 56.83317 10.47104 31961 ft 377 kts 301°
2026-05-05 17:46 56.86376 10.39417 31962 ft 377 kts 301°
2026-05-05 17:46 56.89455 10.31663 31966 ft 377 kts 301°
2026-05-05 17:47 56.92470 10.24021 31975 ft 376 kts 301°
2026-05-05 17:47 56.95529 10.16249 31978 ft 376 kts 301°
2026-05-05 17:48 56.98565 10.08520 31982 ft 376 kts 301°
2026-05-05 17:48 57.01610 10.00735 31984 ft 375 kts 300°
2026-05-05 17:49 57.04650 9.92957 31984 ft 375 kts 301°
2026-05-05 17:49 57.07688 9.85162 31986 ft 375 kts 300°
2026-05-05 17:50 57.10708 9.77367 31988 ft 374 kts 300°
2026-05-05 17:50 57.13716 9.69576 31987 ft 373 kts 300°
2026-05-05 17:51 57.16721 9.61778 31991 ft 373 kts 300°
2026-05-05 17:51 57.19695 9.54036 31993 ft 373 kts 300°
2026-05-05 17:52 57.22681 9.46223 31996 ft 372 kts 300°
2026-05-05 17:52 57.25655 9.38412 31995 ft 371 kts 300°
2026-05-05 17:53 57.28623 9.30610 31996 ft 371 kts 300°
2026-05-05 17:53 57.31579 9.22815 31993 ft 370 kts 300°
2026-05-05 17:54 57.34497 9.15061 31993 ft 369 kts 300°
2026-05-05 17:54 57.37433 9.07267 31984 ft 369 kts 299°
2026-05-05 17:55 57.40362 8.99465 31989 ft 368 kts 299°
2026-05-05 17:55 57.43281 8.91671 31987 ft 367 kts 299°
2026-05-05 17:56 57.46178 8.83882 31984 ft 367 kts 299°
2026-05-05 17:56 57.49077 8.76090 31980 ft 366 kts 299°
2026-05-05 17:57 57.51946 8.68351 31984 ft 366 kts 299°
2026-05-05 17:57 57.54818 8.60550 31986 ft 365 kts 299°
2026-05-05 17:58 57.57784 8.52875 31987 ft 367 kts 302°
2026-05-05 17:58 57.61030 8.45521 31977 ft 367 kts 304°
2026-05-05 17:59 57.64238 8.38372 31978 ft 366 kts 303°
2026-05-05 17:59 57.67451 8.31024 31974 ft 365 kts 303°
2026-05-05 18:00 57.70626 8.23637 31982 ft 364 kts 302°
2026-05-05 18:00 57.73790 8.16232 31977 ft 364 kts 302°
2026-05-05 18:01 57.76948 8.08836 31821 ft 361 kts 302°
2026-05-05 18:01 57.78507 8.05181 31232 ft 358 kts 302°
2026-05-05 18:01 57.80036 8.01595 30677 ft 356 kts 302°
2026-05-05 18:01 57.81574 7.97983 30267 ft 352 kts 302°
2026-05-05 18:02 57.83096 7.94408 29825 ft 350 kts 302°
2026-05-05 18:02 57.84607 7.90855 29345 ft 347 kts 302°
2026-05-05 18:02 57.86104 7.87334 28874 ft 344 kts 302°
2026-05-05 18:02 57.87591 7.83824 28406 ft 341 kts 302°
2026-05-05 18:03 57.89061 7.80340 27978 ft 339 kts 302°
2026-05-05 18:03 57.90521 7.76874 27552 ft 337 kts 302°
2026-05-05 18:03 57.91969 7.73430 27136 ft 335 kts 302°
2026-05-05 18:03 57.93408 7.70006 26719 ft 333 kts 302°
2026-05-05 18:04 57.94840 7.66600 26300 ft 331 kts 302°
2026-05-05 18:04 57.96245 7.63255 25893 ft 329 kts 302°
2026-05-05 18:04 57.97658 7.59883 25475 ft 327 kts 302°
2026-05-05 18:04 57.99059 7.56530 25069 ft 325 kts 302°
2026-05-05 18:05 58.00450 7.53192 24658 ft 323 kts 302°
2026-05-05 18:05 58.01836 7.49865 24251 ft 321 kts 302°
2026-05-05 18:05 58.03209 7.46568 23853 ft 319 kts 302°
2026-05-05 18:05 58.04577 7.43280 23432 ft 317 kts 302°
2026-05-05 18:06 58.05937 7.40010 22947 ft 315 kts 302°
2026-05-05 18:06 58.06830 7.37859 22644 ft 314 kts 302°
2026-05-05 18:06 58.08620 7.33542 22034 ft 311 kts 302°
2026-05-05 18:06 58.09948 7.30331 21583 ft 308 kts 302°
2026-05-05 18:07 58.11247 7.27187 21145 ft 306 kts 302°
2026-05-05 18:07 58.12551 7.24027 20718 ft 304 kts 302°
2026-05-05 18:07 58.13847 7.20882 20287 ft 302 kts 302°
2026-05-05 18:07 58.15132 7.17755 19871 ft 300 kts 302°
2026-05-05 18:08 58.16408 7.14645 19453 ft 298 kts 302°
2026-05-05 18:08 58.17674 7.11554 19049 ft 296 kts 302°
2026-05-05 18:08 58.18934 7.08478 18643 ft 294 kts 302°
2026-05-05 18:08 58.20184 7.05419 18254 ft 292 kts 302°
2026-05-05 18:09 58.21424 7.02381 17819 ft 291 kts 303°
2026-05-05 18:09 58.22641 6.99396 17357 ft 289 kts 303°
2026-05-05 18:09 58.23868 6.96388 16885 ft 288 kts 303°
2026-05-05 18:09 58.25089 6.93394 16450 ft 287 kts 303°
2026-05-05 18:10 58.26306 6.90402 16028 ft 285 kts 303°
2026-05-05 18:10 58.27516 6.87421 15616 ft 284 kts 303°
2026-05-05 18:10 58.28720 6.84458 15167 ft 284 kts 303°
2026-05-05 18:10 58.29921 6.81495 14793 ft 282 kts 303°
2026-05-05 18:11 58.31118 6.78539 14390 ft 281 kts 304°
2026-05-05 18:11 58.32307 6.75596 13981 ft 281 kts 304°
2026-05-05 18:11 58.33497 6.72651 13579 ft 280 kts 304°
2026-05-05 18:11 58.34681 6.69717 13116 ft 279 kts 304°
2026-05-05 18:12 58.35847 6.66826 12680 ft 279 kts 304°
2026-05-05 18:12 58.37019 6.63908 12258 ft 277 kts 305°
2026-05-05 18:12 58.38190 6.60986 11865 ft 277 kts 305°
2026-05-05 18:12 58.39355 6.58076 11462 ft 275 kts 306°
2026-05-05 18:13 58.40351 6.54985 11054 ft 273 kts 295°
2026-05-05 18:13 58.41147 6.51698 10640 ft 273 kts 294°
2026-05-05 18:13 58.41913 6.48405 10343 ft 269 kts 293°
2026-05-05 18:13 58.42658 6.45160 10075 ft 266 kts 293°
2026-05-05 18:14 58.43391 6.41930 9708 ft 264 kts 293°
2026-05-05 18:14 58.44115 6.38708 9323 ft 263 kts 293°
2026-05-05 18:14 58.44831 6.35499 8950 ft 262 kts 293°
2026-05-05 18:14 58.45535 6.32330 8595 ft 261 kts 293°
2026-05-05 18:15 58.46235 6.29135 8232 ft 260 kts 293°
2026-05-05 18:15 58.46923 6.25947 7904 ft 259 kts 293°
2026-05-05 18:15 58.47598 6.22773 7564 ft 258 kts 293°
2026-05-05 18:15 58.48267 6.19599 7207 ft 257 kts 293°
2026-05-05 18:16 58.48909 6.16520 6863 ft 257 kts 293°
2026-05-05 18:16 58.49554 6.13381 6539 ft 256 kts 293°
2026-05-05 18:16 58.50195 6.10217 6172 ft 255 kts 293°
2026-05-05 18:16 58.50835 6.07052 5850 ft 254 kts 293°
2026-05-05 18:17 58.51460 6.03954 5501 ft 253 kts 293°
2026-05-05 18:17 58.52086 6.00815 5156 ft 253 kts 293°
2026-05-05 18:17 58.52705 5.97671 4804 ft 252 kts 293°
2026-05-05 18:17 58.53357 5.94583 4407 ft 250 kts 299°
2026-05-05 18:18 58.54216 5.91703 4059 ft 249 kts 303°
2026-05-05 18:18 58.55103 5.88874 3730 ft 247 kts 303°
2026-05-05 18:18 58.55987 5.86063 3442 ft 245 kts 303°
2026-05-05 18:18 58.56864 5.83272 3134 ft 244 kts 303°
2026-05-05 18:19 58.57729 5.80536 3001 ft 243 kts 304°
2026-05-05 18:19 58.58876 5.78199 3004 ft 242 kts 321°
2026-05-05 18:19 58.60188 5.76191 3005 ft 242 kts 323°
2026-05-05 18:19 58.61516 5.74199 3004 ft 242 kts 323°
2026-05-05 18:20 58.62844 5.72214 2955 ft 242 kts 323°
2026-05-05 18:20 58.63720 5.70906 2922 ft 242 kts 323°
2026-05-05 18:20 58.65501 5.68256 2793 ft 242 kts 323°
2026-05-05 18:20 58.66831 5.66285 2693 ft 241 kts 323°
2026-05-05 18:21 58.68255 5.64710 2709 ft 241 kts 341°
2026-05-05 18:21 58.69909 5.64298 2708 ft 236 kts 358°
2026-05-05 18:21 58.71499 5.64262 2703 ft 221 kts 358°
2026-05-05 18:21 58.72972 5.64226 2709 ft 203 kts 358°
2026-05-05 18:22 58.74341 5.64186 2623 ft 191 kts 357°
2026-05-05 18:22 58.75631 5.64147 2414 ft 181 kts 357°
2026-05-05 18:22 58.76871 5.64110 2163 ft 175 kts 357°
2026-05-05 18:22 58.78058 5.64074 1933 ft 163 kts 357°
2026-05-05 18:23 58.79104 5.64044 1715 ft 139 kts 356°
2026-05-05 18:23 58.80019 5.64017 1531 ft 126 kts 356°
2026-05-05 18:23 58.80883 5.63990 1360 ft 122 kts 356°
2026-05-05 18:23 58.81717 5.63961 1199 ft 121 kts 355°
2026-05-05 18:24 58.82557 5.63928 994 ft 120 kts 355°
2026-05-05 18:24 58.83396 5.63898 809 ft 121 kts 354°
2026-05-05 18:24 58.84236 5.63875 664 ft 120 kts 356°
2026-05-05 18:24 58.85069 5.63857 470 ft 120 kts 355°
2026-05-05 18:25 58.85899 5.63832 329 ft 121 kts 354°
2026-05-05 18:25 58.86174 5.63822 272 ft 122 kts 355°
2026-05-05 18:25 58.87546 5.63784 35 ft 104 kts 357°
2026-05-05 18:25 58.88097 5.63765 32 ft 56 kts 360°
2026-05-05 18:26 58.88375 5.63759 31 ft 39 kts 359°
2026-05-05 18:26 58.88644 5.63751 29 ft 21 kts
2026-05-05 18:26 58.88709 5.63662 28 ft 14 kts 275°
2026-05-05 18:26 58.88708 5.63529 32 ft 9 kts 269°
2026-05-05 18:27 58.88673 5.63417 32 ft 11 kts 188°
2026-05-05 18:27 58.88579 5.63421 31 ft 15 kts 178°
2026-05-05 18:27 58.88472 5.63426 31 ft 11 kts 181°
2026-05-05 18:27 58.88436 5.63284 29 ft 15 kts 253°
2026-05-05 18:28 58.88239 5.63293 30 ft 18 kts 170°
2026-05-05 18:28 58.88155 5.63288 30 ft 12 kts 196°
2026-05-05 18:28 58.88072 5.63181 28 ft 16 kts 223°
2026-05-05 18:29 58.88012 5.63057 28 ft 14 kts 230°
2026-05-05 18:29 58.88008 5.62930 29 ft 9 kts 346°
2026-05-05 18:29 58.88055 5.62909 26 ft 3 kts 343°
2026-05-05 18:29 58.88063 5.62904 25 ft 0 kts 342°